Regional Weather Roundup
Issued by NWS

Home | Current Version | Previous Version | Graphics & Text | Print | Product List | Glossary On
Versions: 1 2 3 4 5 6 7 8 9 10 11 12 13 14 15 16 17 18 19 20 21 22 23 24 25 26 27 28 29 30 31 32 33 34 35 36 37 38 39 40 41 42 43 44 45 46 47 48 49 50
000
ASUS43 KDTX 210910
RWRMI
MICHIGAN HOURLY REGIONAL WEATHER ROUNDUP
NATIONAL WEATHER SERVICE DETROIT/PONTIAC MI
400 AM EST FRI NOV 21 2014

NOTE: "FAIR" INDICATES FEW OR NO CLOUDS BELOW 12,000 FEET WITH NO
SIGNIFICANT WEATHER AND/OR OBSTRUCTION TO VISIBILITY.

MIZ047>049-052>055-059>063-066>070-074>076-081>083-211000-
SOUTHEAST LOWER MICHIGAN

CITY           SKY/WX    TMP DP  RH WIND       PRES   REMARKS
ADRIAN         CLOUDY    18  10  71 NW6       30.31R WCI  10
ALMA           CLEAR      6   5  94 W3        30.29R
ANN ARBOR      MOCLDY    12   6  77 W7        30.28R WCI   1
BAD AXE        CLEAR     15  11  84 W7        30.22R WCI   5
CARO           CLEAR      7   3  85 W3        30.25R
DETROIT CITY   CLEAR     17   9  70 W8        30.28R WCI   7
DETROIT        MOCLDY    16  10  77 W10       30.30R WCI   4
FLINT          CLEAR      8   4  83 W8        30.27R WCI  -4
GROSSE ILE     PTCLDY    18  12  79 W8        30.28R WCI   7
HILLSDALE      LGT SNOW  15  12  88 NW3       30.27R
HOWELL         PTCLDY     8   6  92 W6        30.27R WCI  -3

CITY           SKY/WX    TMP DP  RH WIND       PRES   REMARKS
JACKSON        CLOUDY    16   9  74 W6        30.28R WCI   7
LAMBERTVILLE   CLOUDY    21  16  79 W5        30.31R WCI  15
LANSING        CLEAR      8   4  83 SW6       30.30R WCI  -2
LAPEER         FAIR      11   8  88 W3        30.25R
MASON          PTCLDY    12   9  86 W5        30.28R WCI   4
MONROE         CLOUDY    18  12  79 W6        30.29R WCI   9
MT. CLEMENS    CLEAR     13   9  84 W10       30.24R WCI   0
PONTIAC        CLEAR     10   6  84 W9        30.25R WCI  -3
PORT HOPE        N/A     21  10  62 NW12G22   30.19R WCI   9
PORT HURON     CLEAR     10   7  85 W6        30.25R WCI   1
TRI CITIES     CLEAR     11   7  84 W9        30.28R WCI  -2
TROY           CLEAR     16  11  78 W7        30.28R WCI   7
SAGINAW HB     CLEAR     14  10  85 W10       30.27R WCI   1
$$
MIZ043>046-050>051-056>058-064>065-071>073-077>080-211000-
SOUTHWEST LOWER MICHIGAN

CITY           SKY/WX    TMP DP  RH WIND       PRES   REMARKS
BATTLE CREEK   FLURRIES  19  12  74 NW7       30.30R WCI  10
BENTON HARBOR  CLOUDY    22  11  62 NW9       30.34R WCI  12
BIG RAPIDS     CLOUDY     8   3  82 CALM      30.25R
COLDWATER      CLOUDY    19  15  84 W3        30.30R
FREMONT        CLOUDY    17  11  77 CALM      30.28R
HOLLAND        CLOUDY    19  14  81 E3        30.31R
GRAND RAPIDS   CLOUDY    18  10  71 W6        30.30R WCI  10
IONIA          FAIR       9   5  82 W7        30.29R WCI  -2
KALAMAZOO      LGT SNOW  20  14  77 NW5       30.30R WCI  13
LUDINGTON      FLURRIES  19   9  64 NW8       30.29R WCI   9
MARSHALL       CLOUDY    16  12  86 W3        30.29R
MOUNT PLEASANT CLEAR      7   4  89 SW3       30.26R
MUSKEGON       CLOUDY    20   8  60 CALM      30.31R
SOUTH HAVEN    CLOUDY    24  13  63 N10       30.32R WCI  13
$$
MIZ016>042-211000-
NORTHERN LOWER MICHIGAN

CITY           SKY/WX    TMP DP  RH WIND       PRES   REMARKS
BEAVER ISLAND  PTCLDY    20  12  71 W9G16     30.20R WCI   9
BELLAIRE       FLURRIES  20  13  77 W5        30.23R WCI  13
CADILLAC       CLOUDY     8   5  89 SW6       30.20R WCI  -3
CHARLEVOIX     FLURRIES  20  11  68 W10       30.23R WCI   9
FRANKFORT      CLOUDY    19  11  69 NW8       30.25R WCI   9
GAYLORD        CLOUDY    12   8  84 SW6       30.15R WCI   3
GRAYLING       MOCLDY     9   6  89 SW5       30.20R WCI   1
HARBOR SPRINGS FLURRIES  19   9  65 NW7       30.19R WCI   9
HOUGHTON LAKE  CLEAR     10   6  84 W5        30.21R WCI   2
MANISTEE       CLOUDY    19  12  73 NW13      30.26R WCI   7
OSCODA         PTCLDY     8   4  84 W6        30.22R WCI  -2
PELLSTON       FLURRIES  17  12  80 SW3       30.20R
ROGERS CITY    PTCLDY    10   7  87 SW8       30.20R WCI  -1
TRAVERSE CITY  CLOUDY    17  12  80 SW5       30.23R WCI  10
$$
MIZ007>008-015-211000-
EASTERN UPPER MICHIGAN

CITY           SKY/WX    TMP DP  RH WIND       PRES   REMARKS
KINROSS        MOCLDY     3   3 100 W7        30.15R WCI  -9
MACKINAC ISLAN PTCLDY    18  12  79 W12       30.17R WCI   5
NEWBERRY       CLOUDY     8   6  89 W9        30.16R WCI  -5
S. S. MARIE    CLOUDY    10   6  84 SW10      30.13S WCI  -4
MUNISING         N/A     17  10  74 SW6       30.18R WCI   9
$$
MIZ004>006-011>014-085-211000-
CENTRAL UPPER MICHIGAN

CITY           SKY/WX    TMP DP  RH WIND       PRES   REMARKS
MANISTIQUE     CLOUDY    11   5  79 W9        30.20S WCI  -2
ESCANABA       PTCLDY     5   0  78 W7        30.23R WCI  -7
MENOMINEE      CLEAR      5   0  78 W3        30.27R
SAWYER-GWINN   PTCLDY     1  -2  85 W3        30.17R
$$
MIZ001>003-009>011-084-211000-
WESTERN UPPER MICHIGAN

CITY           SKY/WX    TMP DP  RH WIND       PRES   REMARKS
IRON MOUNTAIN  CLEAR      3  -1  83 CALM      30.20R
HOUGHTON       FLURRIES  16  10  77 W8        30.13S WCI   5
COPPER HARBOR    N/A     16   9  74 W3        30.16R
IRONWOOD       PTCLDY     0  -6  78 CALM      30.17R
$$

ABBREVIATIONS USED IN REMARKS
   TC - TEMPERATURE IN CELSIUS
  WCI - WIND CHILL INDEX
   HX - HEAT INDEX
  VSB - VISIBILITY




USA.gov is the U.S. government's official web portal to all federal, state and local government web resources and services.